Regional Weather Roundup
Issued by NWS

Home | Current Version | Previous Version | Text Only | Print | Product List | Glossary Off
Versions: 1 2 3 4 5 6 7 8 9 10 11 12 13 14 15 16 17 18 19 20 21 22 23 24 25 26 27 28

000
ASUS45 KCYS 190610
RWRWY

WYOMING REGIONAL WEATHER ROUNDUP
NATIONAL WEATHER SERVICE CHEYENNE WY
1200 AM MDT SAT APR 19 2014

NOTE:  "FAIR" INDICATES FEW OR NO CLOUDS BELOW 12,000 FEET
WITH NO SIGNIFICANT WEATHER AND/OR OBSTRUCTIONS TO VISIBILITY.

WYZ001-190700-
YELLOWSTONE NATIONAL PARK

CITY           SKY/WX    TMP DP  RH WIND       PRES   REMARKS
LK YELLOWSTONE   N/A     27  24  89 CALM      30.04R
6HR MIN TEMP:  27; 6HR MAX TEMP:  39;

W YELLOWSTONE  NOT AVBL

$$
WYZ002>013-054>058-071-098>099-190700-
NORTHERN WYOMING

CITY           SKY/WX    TMP DP  RH WIND       PRES   REMARKS
JACKSON        PTCLDY    36  28  75 CALM      30.03R
CODY           CLEAR     37  28  70 CALM      29.92R
GREYBULL       CLEAR     46  28  49 W6        29.87R
6HR MIN TEMP:  44; 6HR MAX TEMP:  66;

WORLAND        CLEAR     42  29  59 NW5       29.89R
6HR MIN TEMP:  42; 6HR MAX TEMP:  67;

SHERIDAN       CLEAR     34  28  79 SW6       29.92  WCI  29
6HR MIN TEMP:  34; 6HR MAX TEMP:  59;

BUFFALO        CLEAR     37  27  67 N10       29.92S WCI  30
6HR MIN TEMP:  37; 6HR MAX TEMP:  64;

GILLETTE       CLOUDY    43  33  68 N10       29.92R
6HR MIN TEMP:  39; 6HR MAX TEMP:  60;

HULETT         CLOUDY   N/A N/A N/A NW10      29.93
NEWCASTLE      FAIR      46  36  66 NW21      29.83

$$
WYZ014>020-022>026-101>103-190700-
CENTRAL WYOMING

CITY           SKY/WX    TMP DP  RH WIND       PRES   REMARKS
BIG PINEY      PTCLDY    25  14  63 NW5       30.05S WCI  19
6HR MIN TEMP:  25; 6HR MAX TEMP:  53;

PINEDALE       PTCLDY    28  23  80 NW5       30.06S WCI  23
DUBOIS         FAIR      36  16  44 NW23G29   29.98R WCI  24
LANDER         MOCLDY    44  14  29 SE8       29.92R
6HR MIN TEMP:  42; 6HR MAX TEMP:  61;

RIVERTON       MOCLDY    47  11  23 NW21      29.91F
6HR MIN TEMP:  47; 6HR MAX TEMP:  63;

CASPER         MOCLDY    42  24  49 N8        29.93R
6HR MIN TEMP:  41; 6HR MAX TEMP:  63;

DOUGLAS        CLOUDY    53  34  48 NW10      29.89R
6HR MIN TEMP:  48; 6HR MAX TEMP:  74;


$$
WYZ021-027>030-104>119-190700-
SOUTHERN WYOMING

CITY           SKY/WX    TMP DP  RH WIND       PRES   REMARKS
EVANSTON       CLOUDY    42  31  64 N5        30.07R
6HR MIN TEMP:  42; 6HR MAX TEMP:  57;

KEMMERER       MOCLDY    36  27  69 N6        30.07S WCI  31
FORT BRIDGER   FAIR      42  33  71 CALM      30.10R
ROCK SPRINGS   CLOUDY    47  31  53 W10       30.03R
6HR MIN TEMP:  47; 6HR MAX TEMP:  56;

DIXON          FAIR      43  33  69 NE7       30.05R
RAWLINS        PTCLDY    45  31  58 SW10      30.01R
6HR MIN TEMP:  43; 6HR MAX TEMP:  60;

SARATOGA       FAIR      37  32  81 SE3       30.04R
LARAMIE        MOCLDY    40  30  67 S5        30.01R
6HR MIN TEMP:  38; 6HR MAX TEMP:  64;

CHEYENNE       CLOUDY    52  32  46 NW6       29.95S
6HR MIN TEMP:  52; 6HR MAX TEMP:  70;

TORRINGTON     CLOUDY    58  36  43 W7        29.84R
6HR MIN TEMP:  57; 6HR MAX TEMP:  74;

PINE BLUFFS    FAIR      48  34  57 NW9       29.90R

$$



USA.gov is the U.S. government's official web portal to all federal, state and local government web resources and services.